Back to catalog

STARLINK-2055

AliveCommunicationsVLEO
NORAD 47358·PAYLOAD·🇺🇸 United States

Launched Jan 20, 2021 from Cape Canaveral Space Force Station

Loading…

Next Passes (next 24 hours)

TLE

FreshSource: CelesTrak SupGP

Epoch: Sep 14, 2026, 21:41 UTC

1 47358C 21005K   26257.90395833  .00060856  00000+0  16454-2 0  2570
2 47358  53.1557 235.3253 0003342  54.4427  61.7127 15.37120582    15

Track STARLINK-2055 in real time with AllMySat

Download on the App Store